Overview Statistics Trail Chart Weather Telemetry Raw packets
 

This is the latest recevied weather packets stored in our database for station/object HI3RRR-13. If no packets are shown the sender has not sent any weather packets the latest 10 day(s).

<< 18 19 20 21 22 23 24 >>
Time Temp. Humidity Pressure Rain* Wind** Luminosity Snow
1788367549 35° C 66% 1015 hPa 0 mm - - -
1788366948 35.56° C 66% 1015 hPa 0 mm - - -
1788366347 36.11° C 66% 1016 hPa 0 mm - - -
1788365747 36.11° C 66% 1016 hPa 0 mm - - -
1788365146 36.11° C 66% 1016 hPa 0 mm - - -
1788364545 36.11° C 66% 1016 hPa 0 mm - - -
1788363944 36.11° C 66% 1016 hPa 0 mm - - -
1788363343 30.56° C 63% 1016 hPa 0 mm - - -
1788362743 30.56° C 64% 1017 hPa 0 mm - - -
1788362142 30.56° C 67% 1017 hPa 0 mm - - -
1788361541 30.56° C 73% 1017 hPa 0 mm - - -
1788360940 29.44° C 80% 1017 hPa 0 mm - - -
1788360340 28.33° C 74% 1017 hPa 0 mm - - -
1788359739 28.33° C 74% 1017 hPa 0 mm - - -
1788359138 28.33° C 76% 1017 hPa 0 mm - - -
1788358538 28.89° C 80% 1017 hPa 0 mm - - -
1788357937 28.33° C 74% 1017 hPa 0 mm - - -
1788356735 28.33° C 89% 1017 hPa 0 mm - - -
1788356135 28.89° C 89% 1017 hPa 0 mm - - -
1788355534 28.89° C 89% 1017 hPa 0 mm - - -
1788354933 28.89° C 89% 1017 hPa 0 mm - - -
1788354333 28.89° C 89% 1017 hPa 0 mm - - -
1788353732 29.44° C 89% 1017 hPa 0 mm - - -
1788353132 24.44° C 94% 1017 hPa 0 mm - - -
1788352531 23.89° C 96% 1017 hPa 0 mm - - -

* Rain latest hour (hover to see other rain measurements)
** Current wind speed in m/s (hover to see current wind gust speed)